Temperature
10 9 9 9 9 8 8 8 8 7 7 7 7 7 7 7 6 6 6 6 6 6 5 5 5 5 4 4 4 4 4 3 3 3 3 2 2 2
9 9 9 8 8 8 8 7 7 7 6 6 6 6 6 6 6 5 5 5 5 5 4 4 4 4 4 4 3 3 3 3 2 2 2 1 1 1
8 8 8 7 7 7 7 7 7 6 6 6 5 5 5 5 5 4 4 4 4 4 4 3 3 3 3 3 3 2 2 2 2 1 1 1 0 0
7 7 7 7 6 6 6 6 6 6 5 5 5 4 4 4 4 4 3 3 3 3 3 3 3 2 2 2 2 2 1 1 1 1 0 0 -0 -0
7 6 6 6 6 6 6 5 5 5 5 4 4 4 3 3 3 3 3 3 3 2 2 2 2 2 1 1 1 1 1 0 0 0 -0 -0 -0 -1
6 5 5 5 5 5 5 5 4 4 4 3 3 3 2 2 2 2 2 2 2 2 1 1 1 1 1 1 0 0 0 -0 -0 -0 -0 -1 -1 -1
5 5 4 4 4 4 4 4 3 3 3 3 2 2 1 1 1 1 1 1 1 1 0 0 0 0 -0 -0 -0 -0 -1 -1 -1 -1 -1 -1 -1 -2
4 4 3 3 3 3 3 3 3 2 2 2 1 1 0 0 0 -0 -0 -1 -1 -1 -0 -0 -1 -1 -1 -1 -1 -1 -1 -1 -1 -1 -2 -2 -2 -2
3 3 3 2 2 2 2 2 2 2 1 1 0 0 -0 -0 -1 -1 -1 -1 -2 -2 -1 -1 -1 -2 -2 -1 -1 -1 -1 -2 -2 -2 -2 -2 -2 -2
2 2 2 1 1 1 1 1 1 1 0 0 -0 -0 -1 -1 -1 -2 -2 -2 -2 -2 -2 -2 -2 -2 -2 -2 -2 -2 -2 -2 -3 -3 -3 -3 -3 -3
1 1 1 1 1 1 0 0 -0 -0 -0 -1 -1 -1 -1 -2 -2 -2 -3 -3 -3 -3 -3 -3 -3 -3 -2 -2 -2 -2 -3 -3 -3 -3 -3 -3 -3 -3
1 0 0 0 0 -0 -0 -1 -1 -1 -1 -1 -2 -2 -2 -2 -3 -3 -3 -4 -4 -4 -4 -4 -4 -4 -4 -3 -3 -3 -3 -4 -4 -4 -4 -4 -4 -4
0 -0 -0 -0 -1 -1 -1 -1 -1 -1 -2 -2 -2 -3 -3 -3 -3 -3 -4 -4 -4 -4 -5 -5 -5 -5 -5 -5 -4 -3 -4 -4 -4 -4 -4 -4 -4 -4
-1 -1 -1 -1 -1 -1 -1 -2 -2 -2 -2 -3 -3 -3 -3 -4 -4 -4 -4 -4 -4 -5 -5 -5 -5 -5 -6 -6 -5 -4 -4 -4 -4 -4 -4 -4 -4 -4
-1 -1 -1 -1 -2 -2 -2 -2 -2 -3 -3 -3 -3 -3 -4 -4 -4 -4 -4 -5 -5 -5 -5 -5 -6 -6 -6 -6 -6 -5 -5 -5 -5 -5 -5 -5 -5 -5
-1 -2 -2 -2 -2 -2 -2 -2 -3 -3 -3 -3 -4 -4 -4 -4 -4 -5 -5 -5 -5 -5 -5 -5 -6 -6 -6 -6 -6 -6 -6 -6 -5 -6 -6 -6 -6 -5
-2 -2 -2 -2 -2 -2 -3 -3 -3 -3 -3 -4 -4 -4 -4 -4 -5 -5 -5 -5 -5 -5 -5 -6 -6 -6 -6 -6 -6 -6 -6 -6 -6 -6 -7 -6 -6 -6
-2 -2 -2 -2 -2 -3 -3 -3 -3 -3 -4 -4 -4 -4 -5 -5 -5 -5 -5 -6 -6 -6 -6 -6 -7 -7 -7 -6 -6 -6 -6 -6 -7 -7 -7 -7 -6 -6
-3 -2 -2 -2 -3 -3 -3 -3 -3 -4 -4 -4 -4 -5 -5 -5 -5 -6 -6 -6 -6 -6 -6 -7 -7 -8 -9 -9 -7 -7 -7 -7 -7 -7 -8 -8 -7 -6
-2 -2 -2 -2 -3 -3 -3 -3 -3 -4 -4 -4 -5 -5 -5 -5 -6 -6 -6 -6 -7 -7 -7 -7 -7 -8 -9 -9 -9 -7 -7 -7 -8 -8 -8 -8 -8 -7
-2 -2 -2 -2 -3 -3 -3 -3 -4 -4 -4 -4 -5 -5 -5 -6 -6 -6 -6 -7 -7 -7 -7 -7 -7 -8 -9 -9 -9 -7 -7 -7 -8 -8 -8 -9 -9 -8
-2 -2 -2 -3 -3 -3 -3 -3 -4 -4 -4 -4 -5 -5 -5 -6 -6 -6 -7 -7 -7 -7 -7 -7 -8 -8 -9 -9 -9 -8 -7 -7 -8 -8 -8 -8 -9 -9
-2 -2 -3 -3 -3 -3 -3 -4 -4 -4 -4 -5 -5 -5 -6 -6 -6 -7 -7 -7 -8 -8 -8 -8 -8 -9 -9 -9 -9 -9 -8 -8 -8 -8 -7 -7 -8 -8
Wind_Speed
4 4 4 3 3 4 4 5 5 6 5 3 1 2 2 3 4 3 3 4 4 4 4 4 4 4 4 4 4 5 5 6 7 8 10 10 10 12
2 3 2 2 1 1 2 3 3 4 3 1 1 1 2 2 3 3 3 4 5 5 5 4 4 4 4 4 4 5 6 6 7 9 9 10 11 12
2 2 1 1 1 0 0 0 1 2 3 1 1 1 1 2 2 3 3 3 3 6 6 5 4 4 4 5 5 5 6 7 8 9 10 11 12 13
2 2 2 2 2 2 1 1 1 0 1 2 1 1 1 1 2 2 2 3 3 5 6 5 4 4 4 4 5 6 7 8 10 10 11 12 13 13
2 2 2 3 3 2 2 2 2 1 1 2 2 1 0 1 1 1 2 2 3 4 4 4 4 5 6 7 7 8 8 10 10 11 12 13 14 14
4 3 3 3 3 3 3 3 2 2 2 2 2 1 0 0 1 1 2 2 3 3 3 4 5 6 6 7 7 8 9 10 11 12 13 13 14 14
5 4 4 5 5 4 3 2 2 2 2 2 1 1 1 0 1 1 2 3 2 2 4 4 4 4 4 5 6 8 9 11 12 13 13 14 14 14
5 5 5 5 6 6 6 5 3 2 1 1 1 2 1 1 1 1 2 3 2 1 4 5 4 4 4 5 6 9 10 11 12 12 13 13 14 14
4 4 3 4 4 4 5 5 5 4 2 1 2 1 1 1 1 2 2 3 4 4 5 4 3 4 4 6 8 10 10 11 11 12 12 13 14 14
3 3 4 3 3 3 3 2 2 2 2 1 1 1 1 1 2 2 2 4 5 4 3 3 4 5 5 7 6 7 7 8 9 10 12 13 15 16
3 2 2 2 4 3 2 1 1 1 2 2 1 1 1 2 2 2 3 3 3 3 2 3 3 5 6 5 4 5 7 8 10 12 14 15 15 16
2 2 2 2 3 3 1 2 1 1 1 1 1 1 2 2 3 4 3 4 3 3 1 2 3 4 4 3 4 6 8 10 12 13 14 15 15 13
3 2 2 3 3 3 2 2 2 2 2 2 2 2 2 2 2 3 3 3 4 4 2 1 3 3 4 4 5 6 7 8 9 11 13 14 14 13
3 2 2 4 3 3 3 3 3 3 2 3 3 3 3 3 2 3 4 5 6 8 7 5 4 5 5 6 6 6 6 8 9 9 10 11 13 15
3 3 4 4 4 4 4 4 4 3 3 4 4 4 3 3 3 3 5 6 8 10 11 11 9 8 8 8 8 8 8 8 9 8 8 8 9 9
4 4 5 5 4 4 4 4 4 4 4 4 4 4 3 3 4 4 4 4 5 6 7 10 11 10 9 11 10 11 10 7 7 8 9 9 10 12
4 3 4 4 4 4 4 4 4 4 5 5 5 5 5 5 5 4 5 5 6 6 6 5 8 11 11 10 10 12 11 11 11 10 9 10 10 11
6 5 5 5 5 5 5 5 5 5 5 5 5 5 5 6 6 5 6 6 8 8 8 6 6 6 6 9 14 13 11 10 10 10 10 11 12 11
8 7 6 6 6 6 6 6 6 6 5 6 6 6 6 6 6 7 7 7 8 9 8 7 7 7 9 10 7 13 11 9 10 10 10 11 13 12
8 8 7 7 7 7 6 6 6 6 6 6 7 7 7 7 7 8 8 9 9 9 9 8 8 9 10 10 9 8 13 13 11 12 12 11 13 16
8 8 8 7 7 7 7 7 7 7 7 7 7 8 7 7 8 8 9 11 11 10 10 10 9 10 9 8 10 11 11 15 16 13 12 12 13 13
8 8 8 8 8 7 7 7 7 7 8 8 8 8 8 8 9 10 9 9 9 10 12 10 9 8 8 10 13 14 14 12 14 21 23 21 12 8
9 9 8 8 8 8 7 8 9 8 8 8 8 8 8 9 9 9 10 10 10 11 11 11 10 9 10 12 13 13 16 15 12 12 13 19 25 30
Wind_Direction
240 239 241 251 253 250 249 247 250 254 242 212 175 48 19 17 7 11 20 18 3 349 334 328 331 326 313 301 288 283 278 273 268 267 262 259 263 268
220 220 226 238 248 258 247 246 249 255 247 141 113 54 41 46 27 25 29 13 10 354 337 328 321 312 303 297 284 276 274 274 273 271 265 265 267 270
176 178 172 163 161 137 146 177 226 240 232 152 97 60 44 36 24 27 16 360 0 4 352 341 325 308 297 289 284 280 277 278 277 275 274 273 274 275
156 147 137 119 115 97 102 105 102 66 200 179 140 118 61 23 9 20 15 359 351 358 348 336 324 316 311 303 293 285 281 279 278 277 275 276 277 279
108 120 121 128 117 96 94 95 88 82 84 138 129 106 96 29 349 355 351 344 346 349 347 342 329 315 304 295 287 285 283 279 277 275 275 276 277 278
91 89 93 108 115 114 103 98 98 101 100 110 116 127 133 7 287 318 314 329 328 333 327 320 308 300 291 287 284 284 284 283 280 276 275 274 274 274
97 90 84 84 86 92 97 104 107 108 114 125 140 166 180 227 285 322 305 319 316 319 315 309 303 291 281 271 272 276 276 276 276 276 276 274 272 272
115 105 98 92 92 90 87 78 71 96 134 154 192 212 216 240 276 287 304 315 302 341 317 306 294 284 281 276 282 282 279 275 274 274 275 276 275 274
125 124 109 100 100 103 96 89 76 64 52 227 216 233 241 247 264 274 292 295 288 316 313 292 287 285 287 283 286 285 280 277 275 275 276 276 275 274
126 133 132 129 115 113 106 88 78 73 55 348 278 279 285 267 249 255 269 281 283 277 275 276 297 297 300 292 286 285 281 276 275 276 278 278 277 276
131 135 142 148 144 142 140 135 130 103 81 60 24 358 310 284 269 253 259 278 287 277 263 272 299 309 299 285 275 272 277 279 282 283 281 278 276 276
156 159 170 181 168 178 196 201 223 219 218 213 221 216 239 228 245 252 251 258 268 275 224 271 297 318 303 284 279 275 274 276 279 280 279 277 276 274
185 193 191 192 201 206 238 247 247 259 255 251 254 250 246 245 246 251 251 245 251 254 261 265 277 282 275 289 288 278 276 279 283 282 279 274 272 266
207 211 205 204 219 227 242 242 232 241 246 251 254 254 253 254 260 267 265 260 256 259 264 259 256 260 270 281 280 280 278 280 279 279 277 275 269 262
219 219 224 218 226 235 241 238 228 236 241 250 255 257 260 265 266 267 264 261 262 258 253 246 244 252 254 261 271 281 290 286 278 272 271 271 271 269
221 219 220 219 233 241 238 233 235 241 245 252 259 261 258 255 254 258 268 275 276 268 240 235 237 242 252 257 263 270 272 272 273 272 274 273 269 264
204 214 220 223 230 232 235 237 236 234 239 245 250 254 256 257 258 255 258 262 263 272 272 252 238 240 248 257 263 262 265 266 266 270 272 273 270 265
216 230 233 234 238 240 241 240 238 238 239 242 245 249 253 256 260 258 255 257 263 268 270 270 268 270 265 254 236 252 260 264 268 267 266 272 275 270
229 237 239 239 240 240 241 242 243 241 237 239 243 246 249 252 255 257 256 258 263 267 269 266 259 257 270 281 258 223 243 264 271 271 268 266 272 276
231 237 241 241 240 240 241 241 243 241 235 238 241 243 244 247 251 254 255 257 264 269 271 264 254 250 254 273 280 271 248 256 266 269 273 273 273 277
232 237 241 242 241 240 240 240 240 241 240 239 242 243 242 244 249 253 257 260 261 265 267 268 264 262 265 268 268 266 263 249 249 258 269 275 278 278
236 238 240 240 240 240 239 238 239 240 240 239 242 243 242 243 248 252 255 258 259 261 267 271 272 265 255 255 264 274 280 276 265 261 257 254 258 264
236 238 240 240 238 237 236 237 239 242 240 239 241 243 243 244 248 251 253 256 259 263 266 271 270 263 258 258 266 272 277 281 280 277 267 257 253 255
Height
1517 1517 1517 1517 1517 1517 1518 1518 1518 1516 1515 1515 1515 1514 1514 1513 1512 1511 1510 1510 1509 1509 1509 1508 1508 1508 1508 1509 1509 1509 1509 1509 1510 1510 1510 1510 1511 1512
1511 1511 1511 1511 1511 1511 1512 1512 1512 1512 1510 1510 1509 1509 1509 1508 1507 1506 1505 1505 1504 1504 1504 1503 1503 1503 1503 1503 1503 1503 1503 1503 1504 1504 1504 1505 1505 1506
1506 1506 1506 1506 1506 1506 1506 1506 1506 1506 1506 1505 1505 1504 1504 1503 1502 1502 1501 1500 1500 1499 1499 1498 1498 1498 1498 1498 1498 1497 1498 1498 1498 1498 1498 1499 1499 1499
1502 1501 1501 1501 1502 1501 1501 1501 1501 1501 1501 1500 1500 1500 1499 1499 1498 1497 1496 1496 1495 1495 1494 1494 1494 1493 1493 1493 1493 1492 1492 1492 1492 1492 1492 1493 1493 1493
1498 1498 1497 1498 1497 1497 1497 1497 1497 1497 1497 1496 1496 1496 1495 1495 1494 1493 1493 1492 1491 1491 1490 1490 1489 1488 1488 1488 1488 1487 1487 1487 1487 1487 1487 1486 1487 1487
1494 1494 1494 1494 1494 1493 1493 1493 1493 1493 1493 1492 1492 1492 1492 1491 1490 1490 1489 1488 1487 1487 1486 1485 1485 1484 1483 1483 1483 1482 1482 1482 1481 1481 1481 1480 1480 1480
1490 1490 1490 1490 1490 1490 1490 1490 1490 1490 1489 1489 1489 1489 1488 1487 1487 1486 1486 1485 1483 1483 1482 1481 1481 1480 1479 1478 1478 1477 1477 1476 1476 1476 1475 1475 1474 1474
1487 1487 1487 1487 1487 1487 1487 1487 1487 1487 1486 1486 1486 1486 1485 1484 1484 1483 1482 1481 1481 1480 1479 1478 1477 1476 1475 1474 1473 1473 1472 1471 1471 1470 1470 1469 1469 1469
1485 1485 1485 1485 1485 1484 1484 1484 1484 1484 1484 1484 1483 1482 1482 1481 1481 1480 1479 1479 1478 1476 1475 1474 1474 1472 1471 1470 1469 1468 1467 1466 1465 1465 1464 1464 1463 1463
1482 1482 1482 1482 1482 1482 1482 1481 1481 1481 1480 1480 1480 1479 1479 1478 1478 1477 1476 1475 1474 1473 1472 1471 1470 1469 1467 1466 1464 1463 1462 1461 1461 1460 1459 1458 1458 1457
1480 1480 1480 1480 1480 1480 1479 1479 1479 1478 1478 1477 1476 1476 1475 1475 1474 1474 1473 1472 1471 1470 1469 1468 1466 1464 1463 1461 1460 1459 1458 1457 1456 1455 1453 1453 1452 1451
1478 1478 1478 1478 1478 1477 1477 1477 1476 1476 1475 1474 1473 1473 1472 1471 1471 1471 1470 1469 1468 1467 1466 1465 1462 1461 1458 1457 1456 1455 1454 1452 1451 1449 1448 1446 1445 1444
1476 1476 1476 1476 1475 1475 1475 1474 1474 1473 1472 1471 1470 1470 1469 1468 1468 1467 1467 1466 1465 1464 1463 1461 1459 1457 1456 1452 1451 1450 1448 1447 1445 1443 1442 1440 1439 1438
1474 1474 1474 1473 1473 1473 1472 1471 1471 1470 1469 1468 1468 1467 1466 1465 1464 1464 1463 1462 1461 1460 1459 1457 1455 1454 1451 1448 1445 1444 1443 1441 1439 1437 1435 1434 1433 1432
1472 1471 1471 1471 1470 1470 1469 1468 1468 1467 1466 1466 1465 1464 1463 1462 1461 1460 1458 1457 1456 1455 1454 1452 1451 1449 1447 1444 1440 1438 1436 1435 1433 1431 1429 1428 1426 1425
1469 1469 1468 1468 1467 1467 1466 1465 1464 1464 1463 1462 1461 1460 1459 1458 1457 1455 1454 1452 1451 1450 1449 1447 1445 1443 1441 1438 1436 1432 1431 1428 1426 1425 1422 1420 1419 1417
1466 1466 1465 1465 1464 1463 1462 1462 1461 1460 1459 1458 1457 1456 1455 1453 1452 1451 1449 1448 1446 1444 1443 1441 1439 1437 1434 1432 1429 1426 1424 1422 1420 1418 1416 1413 1411 1410
1463 1462 1461 1461 1460 1459 1459 1458 1457 1456 1455 1454 1452 1451 1450 1449 1447 1446 1444 1442 1440 1438 1437 1435 1433 1431 1428 1424 1424 1420 1418 1416 1414 1412 1409 1405 1402 1402
1458 1458 1457 1457 1456 1455 1454 1453 1452 1451 1450 1449 1448 1446 1445 1443 1442 1440 1439 1437 1434 1433 1431 1429 1427 1424 1422 1418 1415 1414 1412 1409 1407 1404 1402 1399 1395 1393
1453 1453 1452 1452 1451 1450 1449 1448 1447 1446 1445 1443 1442 1441 1439 1438 1436 1434 1432 1431 1428 1426 1424 1422 1421 1418 1416 1413 1408 1406 1405 1402 1399 1396 1394 1391 1388 1385
1448 1448 1447 1447 1446 1445 1444 1443 1442 1440 1439 1438 1436 1435 1433 1431 1429 1428 1426 1424 1422 1419 1417 1415 1414 1412 1409 1406 1401 1396 1397 1395 1392 1389 1386 1383 1379 1377
1443 1442 1441 1441 1440 1439 1438 1437 1436 1434 1433 1431 1430 1428 1427 1425 1423 1421 1419 1417 1415 1412 1410 1408 1406 1404 1401 1398 1394 1390 1387 1386 1384 1382 1379 1376 1374 1368
1436 1436 1435 1434 1434 1433 1431 1430 1429 1427 1426 1424 1423 1421 1419 1418 1416 1414 1412 1410 1407 1405 1403 1400 1398 1396 1393 1391 1387 1383 1380 1377 1375 1372 1369 1368 1365 1362